TimeEST,TemperatureF,Dew PointF,Humidity,Sea Level PressureIn,VisibilityMPH,Wind Direction,Wind SpeedMPH,Gust SpeedMPH,PrecipitationIn,Events,Conditions,WindDirDegrees,DateUTC
12:53 AM,46.9,44.1,90,30.37,6.0,Calm,Calm,-,N/A,,Clear,0,2012-12-02 05:53:00
2:53 AM,46.0,42.1,86,30.37,8.0,Calm,Calm,-,N/A,,Overcast,0,2012-12-02 07:53:00
3:53 AM,46.9,43.0,86,30.36,9.0,Calm,Calm,-,N/A,,Overcast,0,2012-12-02 08:53:00
4:53 AM,51.1,46.9,86,30.36,7.0,Calm,Calm,-,N/A,,Overcast,0,2012-12-02 09:53:00
5:53 AM,50.0,46.0,86,30.36,8.0,Calm,Calm,-,N/A,,Overcast,0,2012-12-02 10:53:00
6:53 AM,51.1,46.9,86,30.37,7.0,Calm,Calm,-,N/A,,Overcast,0,2012-12-02 11:53:00
7:53 AM,52.0,48.0,86,30.38,8.0,Calm,Calm,-,N/A,,Overcast,0,2012-12-02 12:53:00
8:53 AM,55.9,50.0,80,30.39,10.0,Calm,Calm,-,N/A,,Overcast,0,2012-12-02 13:53:00
9:53 AM,60.1,48.9,67,30.40,10.0,SE,4.6,-,N/A,,Overcast,130,2012-12-02 14:53:00
10:53 AM,64.9,48.9,56,30.38,10.0,SSE,8.1,-,N/A,,Mostly Cloudy,150,2012-12-02 15:53:00
11:53 AM,68.0,51.1,55,30.35,10.0,SSE,8.1,-,N/A,,Mostly Cloudy,160,2012-12-02 16:53:00
12:53 PM,70.0,54.0,57,30.32,10.0,SSE,9.2,-,N/A,,Partly Cloudy,160,2012-12-02 17:53:00
1:53 PM,72.0,55.9,57,30.29,10.0,SSE,6.9,-,N/A,,Mostly Cloudy,160,2012-12-02 18:53:00
2:53 PM,73.0,55.9,55,30.27,10.0,SSW,8.1,-,N/A,,Mostly Cloudy,210,2012-12-02 19:53:00
3:53 PM,71.1,57.0,61,30.27,10.0,South,5.8,-,0.00,,Overcast,180,2012-12-02 20:53:00
4:53 PM,69.1,57.0,65,30.27,10.0,Calm,Calm,-,0.00,,Mostly Cloudy,0,2012-12-02 21:53:00
5:53 PM,66.0,57.0,73,30.27,10.0,SE,3.5,-,N/A,,Mostly Cloudy,140,2012-12-02 22:53:00
6:53 PM,64.0,55.9,75,30.28,10.0,SSE,5.8,-,N/A,,Scattered Clouds,150,2012-12-02 23:53:00
7:53 PM,62.1,55.9,80,30.29,10.0,SSE,5.8,-,N/A,,Mostly Cloudy,150,2012-12-03 00:53:00
8:53 PM,62.1,55.9,80,30.29,10.0,South,5.8,-,N/A,,Scattered Clouds,170,2012-12-03 01:53:00
9:53 PM,60.1,55.0,83,30.29,10.0,Calm,Calm,-,N/A,,Scattered Clouds,0,2012-12-03 02:53:00
10:53 PM,57.9,55.0,90,30.29,10.0,SSW,3.5,-,N/A,,Clear,200,2012-12-03 03:53:00
11:53 PM,57.0,54.0,89,30.29,8.0,Calm,Calm,-,N/A,,Clear,0,2012-12-03 04:53:00